Location: ?????????
(44.2517°N, 135.2292°E)
Time: 16:12:20
(UTC+00:00)

ARIANE 6 FM1 Upper Stage - Pass Details

Date: 20 January 2026
Orbit: 522 x 609 km, 62.0° (Epoch: 11 February)

Event Time Altitude Azimuth Distance (km) Brightness Sun altitude
Rises 09:32:16 0° 183° (S) 2,715 6.3 -17.7°
Reaches altitude 10° 09:34:53 10° 167° (SSE) 1,810 5.2 -18.2°
Enters shadow 09:36:39 18° 144° (SE) 1,367 4.4 -18.5°
